Time,TemperatureF,DewpointF,PressureIn,WindDirection,WindDirectionDegrees,WindSpeedMPH,WindSpeedGustMPH,Humidity,HourlyPrecipIn,Conditions,Clouds,dailyrainin,SoftwareType,DateUTC
2013-05-01 00:00:00,47.1,37.1,30.36,NNE,26,0.0,0.0,68,0.00,,,0.00,Wunderground v.1.15,2013-05-01 04:00:00,
2013-05-01 00:30:00,46.2,38.0,30.37,NNE,26,0.0,0.0,73,0.00,,,0.00,Wunderground v.1.15,2013-05-01 04:30:00,
2013-05-01 01:00:00,45.5,38.0,30.36,NNE,26,0.0,0.0,75,0.00,,,0.00,Wunderground v.1.15,2013-05-01 05:00:00,
2013-05-01 01:30:00,44.7,37.9,30.37,NNE,26,0.0,0.0,77,0.00,,,0.00,Wunderground v.1.15,2013-05-01 05:30:00,
2013-05-01 02:00:00,43.9,37.2,30.37,NNE,25,0.0,0.0,77,0.00,,,0.00,Wunderground v.1.15,2013-05-01 06:00:00,
2013-05-01 02:30:00,43.7,37.3,30.37,NNE,26,0.0,0.0,78,0.00,,,0.00,Wunderground v.1.15,2013-05-01 06:30:00,
2013-05-01 03:00:00,42.5,37.4,30.38,NNE,26,0.0,0.0,82,0.00,,,0.00,Wunderground v.1.15,2013-05-01 07:00:00,
2013-05-01 03:30:00,41.3,36.5,30.38,NNE,26,0.0,0.0,83,0.00,,,0.00,Wunderground v.1.15,2013-05-01 07:30:00,
2013-05-01 04:00:00,40.6,36.1,30.39,NNE,26,0.0,0.0,84,0.00,,,0.00,Wunderground v.1.15,2013-05-01 08:00:00,
2013-05-01 04:30:00,40.5,36.3,30.40,NNE,26,0.0,0.0,85,0.00,,,0.00,Wunderground v.1.15,2013-05-01 08:30:00,
2013-05-01 05:00:00,39.8,36.0,30.41,NNE,26,0.0,0.0,86,0.00,,,0.00,Wunderground v.1.15,2013-05-01 09:00:00,
2013-05-01 05:30:00,39.1,35.8,30.41,NNE,26,0.0,0.0,88,0.00,,,0.00,Wunderground v.1.15,2013-05-01 09:30:00,
2013-05-01 06:00:00,38.8,35.8,30.42,NNE,26,0.0,0.0,89,0.00,,,0.00,Wunderground v.1.15,2013-05-01 10:00:00,
2013-05-01 06:30:00,40.6,37.9,30.42,West,276,0.0,0.0,90,0.00,,,0.00,Wunderground v.1.15,2013-05-01 10:30:00,
2013-05-01 07:00:00,42.2,38.9,30.43,West,277,0.0,0.0,88,0.00,,,0.00,Wunderground v.1.15,2013-05-01 11:00:00,
2013-05-01 07:30:00,48.9,41.0,30.44,West,275,0.0,0.0,74,0.00,,,0.00,Wunderground v.1.15,2013-05-01 11:30:00,
2013-05-01 08:00:00,53.6,40.0,30.44,West,263,1.0,1.0,60,0.00,,,0.00,Wunderground v.1.15,2013-05-01 12:00:00,
2013-05-01 08:30:00,58.0,40.5,30.45,West,262,0.0,0.0,52,0.00,,,0.00,Wunderground v.1.15,2013-05-01 12:30:00,
2013-05-01 09:00:00,63.1,35.7,30.46,West,266,0.0,2.0,36,0.00,,,0.00,Wunderground v.1.15,2013-05-01 13:00:00,
2013-05-01 09:30:00,65.0,33.6,30.45,SSE,165,1.0,1.0,31,0.00,,,0.00,Wunderground v.1.15,2013-05-01 13:30:00,
2013-05-01 10:00:00,66.9,37.6,30.45,ESE,123,1.0,1.0,34,0.00,,,0.00,Wunderground v.1.15,2013-05-01 14:00:00,
2013-05-01 10:30:00,66.8,41.0,30.47,East,80,1.0,2.0,39,0.00,,,0.00,Wunderground v.1.15,2013-05-01 14:30:00,
2013-05-01 11:00:00,67.6,38.2,30.47,East,100,1.0,2.0,34,0.00,,,0.00,Wunderground v.1.15,2013-05-01 15:00:00,
2013-05-01 11:30:00,68.0,39.3,30.46,ESE,120,2.0,2.0,35,0.00,,,0.00,Wunderground v.1.15,2013-05-01 15:30:00,
2013-05-01 12:00:00,68.5,38.2,30.46,ESE,120,2.0,2.0,33,0.00,,,0.00,Wunderground v.1.15,2013-05-01 16:00:00,
2013-05-01 12:30:00,69.7,36.9,30.45,ESE,120,1.0,2.0,30,0.00,,,0.00,Wunderground v.1.15,2013-05-01 16:30:00,
2013-05-01 13:00:00,69.5,35.8,30.45,NE,41,2.0,4.0,29,0.00,,,0.00,Wunderground v.1.15,2013-05-01 17:00:00,
2013-05-01 13:30:00,69.3,35.7,30.45,SE,125,2.0,2.0,29,0.00,,,0.00,Wunderground v.1.15,2013-05-01 17:30:00,
2013-05-01 14:00:00,70.7,36.0,30.45,ENE,78,1.0,1.0,28,0.00,,,0.00,Wunderground v.1.15,2013-05-01 18:00:00,
2013-05-01 14:30:00,69.2,36.4,30.44,West,260,2.0,2.0,30,0.00,,,0.00,Wunderground v.1.15,2013-05-01 18:30:00,
2013-05-01 15:00:00,68.9,34.4,30.44,NNW,333,2.0,3.0,28,0.00,,,0.00,Wunderground v.1.15,2013-05-01 19:00:00,
2013-05-01 15:30:00,68.7,35.1,30.44,ENE,77,2.0,3.0,29,0.00,,,0.00,Wunderground v.1.15,2013-05-01 19:30:00,
2013-05-01 16:00:00,67.7,35.1,30.44,ENE,71,2.0,2.0,30,0.00,,,0.00,Wunderground v.1.15,2013-05-01 20:00:00,
2013-05-01 16:30:00,68.3,36.5,30.43,SE,131,1.0,2.0,31,0.00,,,0.00,Wunderground v.1.15,2013-05-01 20:30:00,
2013-05-01 17:00:00,68.4,35.7,30.43,NE,36,1.0,2.0,30,0.00,,,0.00,Wunderground v.1.15,2013-05-01 21:00:00,
2013-05-01 17:30:00,66.5,34.9,30.43,ESE,116,1.0,1.0,31,0.00,,,0.00,Wunderground v.1.15,2013-05-01 21:30:00,
2013-05-01 18:00:00,65.6,35.7,30.43,SSE,151,1.0,1.0,33,0.00,,,0.00,Wunderground v.1.15,2013-05-01 22:00:00,
2013-05-01 18:30:00,64.2,36.0,30.44,ESE,103,1.0,1.0,35,0.00,,,0.00,Wunderground v.1.15,2013-05-01 22:30:00,
2013-05-01 19:00:00,61.5,36.3,30.44,East,98,1.0,1.0,39,0.00,,,0.00,Wunderground v.1.15,2013-05-01 23:00:00,
2013-05-01 19:30:00,60.1,32.3,30.44,SSW,198,0.0,0.0,35,0.00,,,0.00,Wunderground v.1.15,2013-05-01 23:30:00,
2013-05-01 20:00:00,58.2,33.3,30.43,NE,50,0.0,0.0,39,0.00,,,0.00,Wunderground v.1.15,2013-05-02 00:00:00,
2013-05-01 20:30:00,56.3,34.1,30.43,NE,50,0.0,0.0,43,0.00,,,0.00,Wunderground v.1.15,2013-05-02 00:30:00,
2013-05-01 21:00:00,54.4,37.1,30.43,NE,49,0.0,0.0,52,0.00,,,0.00,Wunderground v.1.15,2013-05-02 01:00:00,
2013-05-01 21:30:00,53.4,37.6,30.44,NE,50,0.0,0.0,55,0.00,,,0.00,Wunderground v.1.15,2013-05-02 01:30:00,
2013-05-01 22:00:00,52.2,39.6,30.44,NE,50,0.0,0.0,62,0.00,,,0.00,Wunderground v.1.15,2013-05-02 02:00:00,
2013-05-01 22:30:00,51.4,40.8,30.44,NE,50,0.0,0.0,67,0.00,,,0.00,Wunderground v.1.15,2013-05-02 02:30:00,
2013-05-01 23:00:00,50.4,40.6,30.44,NE,49,0.0,0.0,69,0.00,,,0.00,Wunderground v.1.15,2013-05-02 03:00:00,
2013-05-01 23:30:00,49.3,40.7,30.44,NE,50,0.0,0.0,72,0.00,,,0.00,Wunderground v.1.15,2013-05-02 03:30:00,